Location: Arrien
(42.8963°N, 1.0429°E)
Time: 11:18:56
(UTC+00:00)

Tiangong - Visible Passes

Search period start: 17 February 2026 00:00
Search period end: 27 February 2026 00:00
Orbit: 386 x 391 km, 41.5° (Epoch: 17 February)

Date Brightness Start Highest point End Pass type
(mag) Time Alt. Az. Time Alt. Az. Time Alt. Az.
17 Feb -2.0 18:12:14 10° W 18:15:24 68° S 18:18:09 13° E visible
17 Feb 0.5 19:49:12 10° W 19:50:26 20° WSW 19:50:26 20° WSW visible
18 Feb -1.5 18:50:36 10° W 18:53:41 47° SSW 18:54:49 30° SE visible
19 Feb -0.1 19:29:09 10° W 19:31:30 23° SSW 19:31:30 23° SSW visible
20 Feb -0.7 18:30:18 10° W 18:33:12 33° SSW 18:35:55 11° SE visible
21 Feb 0.6 19:09:13 10° WSW 19:11:01 14° SSW 19:12:41 10° S visible
22 Feb 0.2 18:09:54 10° WSW 18:12:26 22° SSW 18:14:57 10° SSE visible
